Tracking 30970 objects as of 3-Jul-2025
HD Live streaming from Space Station
objects crossing your sky now

DELTA 1 DEB

Track DELTA 1 DEB now!
10-day predictions


NORAD ID: 12217
Int'l Code: 1978-026BJ
Perigee: 804.5 km
Apogee: 836.1 km
Inclination: 99.0 °
Period: 101.2 minutes
Semi major axis: 7191 km
RCS: 0.0277 m2 (small)
Launch date: March 5, 1978
Source: United States (US)
Launch site: AIR FORCE WESTERN TEST RANGE (AFWTR)

Note: This is SATELLITE DEBRIS
Your satellite tracking list
Your tracking list is empty




NASA's NSSDC Master Catalog

Two Line Element Set (TLE):
1 12217U 78026BJ  25183.81039801  .00000537  00000-0  25521-3 0  9998
2 12217  98.9622 197.6344 0021992  72.2679 108.5256 14.23617736290672
Source of the keplerian elements: AFSPC